Weather History for PAGY - September, 2011

Change the Weather History Date:

Sunday, September 18, 2011

  Actual Average Record
Temperature  
Mean Temperature 50 °F -  
Max Temperature 61 °F 53 °F 71 °F (2010)
Min Temperature 39 °F 43 °F 27 °F (1983)
Degree Days  
Heating Degree Days 15    
Moisture  
Dew Point 39 °F    
Average Humidity 64    
Maximum Humidity 97    
Minimum Humidity 41    
Precipitation  
Precipitation 0.00 in - - ()
Sea Level Pressure  
Sea Level Pressure 29.50 in    
Wind  
Wind Speed 7 mph (North)    
Max Wind Speed 24 mph    
Max Gust Speed 23 mph    
Visibility 10 miles    
Events      
Averages and records for this station are not official NWS values.
T = Trace of Precipitation, MM = Missing Value Source: NWS Daily Summary

Daily Weather History Graph

Daily Weather History Graph

Search for Another Location

Airport or City:

Trip Planner

Search our weather history database for the weather conditions in past years. The results will help you decide how hot, cold, wet, or windy it might be!

Date:

Astronomy

Sep. 18, 2011 Rise Set
Actual Time 6:36 AM AKDT 7:13 PM AKDT
Civil Twilight 5:55 AM AKDT 7:54 PM AKDT
Nautical Twilight 5:04 AM AKDT 8:44 PM AKDT
Astronomical Twilight 4:08 AM AKDT 9:39 PM AKDT
Moon 8:46 PM AKDT (9/18) 2:28 PM AKDT (9/18)
Length of Visible Light 13h 59m
Length of Day
12h 36m
Waning Gibbous, 67% of the Moon is Illuminated
Sep 18
Waning Gibbous
Sep 20
Last Quarter
Sep 27
New
Oct 3
First Quarter
Oct 11
Full

Hourly Weather History & Observations

Time (AKDT) Temp. Windchill Dew Point Humidity Pressure Visibility Wind Dir Wind Speed Gust Speed Precip Events Conditions
12:53 AM 41.0 °F - 39.2 °F 93% 29.58 in 10.0 mi Calm Calm - N/A   Clear
1:53 AM 39.9 °F 37.8 °F 39.0 °F 97% 29.55 in 10.0 mi NE 3.5 mph - N/A   Clear
2:53 AM 39.0 °F - 37.9 °F 96% 29.52 in 10.0 mi Calm Calm - N/A   Clear
4:53 AM 43.0 °F - 39.0 °F 86% 29.46 in 10.0 mi Calm Calm - N/A   Clear
5:53 AM 45.0 °F - 37.9 °F 76% 29.44 in 10.0 mi Calm Calm - N/A   Mostly Cloudy
6:53 AM 51.1 °F - 35.1 °F 54% 29.42 in 10.0 mi North 10.4 mph - N/A   Overcast
7:53 AM 52.0 °F - 36.0 °F 54% 29.41 in 10.0 mi NNW 8.1 mph 16.1 mph N/A   Overcast
8:53 AM 53.1 °F - 35.1 °F 50% 29.39 in 10.0 mi NNE 11.5 mph 21.9 mph N/A   Overcast
9:53 AM 54.0 °F - 36.0 °F 51% 29.40 in 10.0 mi NNE 9.2 mph - N/A   Mostly Cloudy
10:53 AM 57.2 °F - 35.6 °F 44% 29.40 in 10.0 mi NE 8.1 mph - N/A   Scattered Clouds
11:53 AM 59.0 °F - 36.0 °F 42% 29.40 in 10.0 mi NE 13.8 mph - N/A   Mostly Cloudy
12:53 PM 59.0 °F - 36.0 °F 42% 29.41 in 10.0 mi NE 10.4 mph - N/A   Scattered Clouds
1:53 PM 61.0 °F - 37.0 °F 41% 29.42 in 10.0 mi Variable 4.6 mph - N/A   Overcast
2:53 PM 60.1 °F - 36.0 °F 41% 29.44 in 10.0 mi NNE 5.8 mph - N/A   Overcast
3:53 PM 59.0 °F - 37.9 °F 46% 29.47 in 10.0 mi Calm Calm - N/A   Overcast
4:53 PM 55.9 °F - 39.9 °F 55% 29.49 in 10.0 mi SSW 18.4 mph - N/A   Overcast
5:53 PM 55.0 °F - 42.1 °F 62% 29.52 in 10.0 mi SSW 24.2 mph - N/A   Overcast
6:53 PM 54.0 °F - 42.1 °F 64% 29.56 in 10.0 mi SSW 17.3 mph - N/A   Overcast
7:53 PM 52.0 °F - 44.1 °F 74% 29.59 in 10.0 mi SSW 17.3 mph - N/A   Overcast
8:53 PM 52.0 °F - 44.1 °F 74% 29.62 in 10.0 mi SSW 15.0 mph - N/A   Overcast
9:53 PM 52.0 °F - 45.0 °F 77% 29.67 in 10.0 mi SSW 19.6 mph - N/A   Overcast
10:53 PM 51.1 °F - 45.0 °F 80% 29.70 in 10.0 mi SSW 15.0 mph - 0.00 in   Overcast
11:53 PM 51.1 °F - 44.1 °F 77% 29.73 in 10.0 mi SSW 16.1 mph 23.0 mph N/A   Overcast